Tracking 17886 objects as of 9-December-2016
HD Live streaming from Space Station
objects crossing your sky now

BREEZE-M DEB

Track BREEZE-M DEB now!
10-day predictions


NORAD ID: 34254
Int'l Code: 2006-006BV
Perigee: 538.1 km
Apogee: 12,305.7 km
Inclination: 51.6 °
Period: 240.0 minutes
Semi major axis: 12792 km
RCS: 0.033 m2 (small)
Launch date: February 28, 2006
Source: Commonwealth of Independent States (former USSR) (CIS)
Launch site: TYURATAM MISSILE AND SPACE COMPLEX (TTMTR)

Note: This is SATELLITE DEBRIS
Your satellite tracking list
Your tracking list is empty





NASA's NSSDC Master Catalog

Two Line Element Set (TLE):
1 34254U 06006BV  16343.78727494  .00009465  00000-0  86251-2 0  9993
2 34254  51.5605 250.6667 4599285 155.8597 235.3898  6.09329955174622
Source of the keplerian elements: AFSPC